When you browse on this site, cookies collect data to enhance your experience and personalize the content and advertising you see.
Visit our Privacy Policy to learn more. By continuing to use the site, you agree to this use of cookies and data.
  • In Hungary
  • List of Countries
  • For 7 days
  • Water Temperature
  • Satellite Maps
  • Weather Map
  • News
  • Weather Widgets
  • user-avatar
    Login

    Hourly Weather Molotino

    Today, 20 January, Sunday

    Time Temperature Precipitation Wind Pressure Humidity
    00:00 -12°C° 0 mm 3 mps 743 mmHg 93%
    01:00 -10°C° 0 mm 3 mps 743 mmHg 92%
    02:00 -10°C° 0 mm 4 mps 743 mmHg 90%
    03:00 -9°C° 0 mm 4 mps 742 mmHg 90%
    04:00 -9°C° 0 mm 4 mps 742 mmHg 89%
    05:00 -10°C° 0 mm 5 mps 742 mmHg 88%
    06:00 -10°C° 0.1 mm 5 mps 741 mmHg 87%
    07:00 -9°C° 0.1 mm 6 mps 741 mmHg 87%
    08:00 -9°C° 0 mm 6 mps 740 mmHg 86%
    09:00 -8°C° 0.1 mm 6 mps 740 mmHg 85%
    10:00 -8°C° 0.1 mm 7 mps 740 mmHg 84%
    11:00 -7°C° 0.1 mm 7 mps 740 mmHg 83%
    12:00 -7°C° 0.1 mm 7 mps 739 mmHg 83%
    13:00 -7°C° 0.1 mm 7 mps 739 mmHg 84%
    14:00 -5°C° 0.1 mm 6 mps 739 mmHg 84%
    15:00 -6°C° 0.2 mm 6 mps 739 mmHg 84%
    16:00 -6°C° 0.2 mm 5 mps 739 mmHg 85%
    17:00 -6°C° 0.2 mm 5 mps 738 mmHg 85%
    18:00 -7°C° 0.1 mm 5 mps 738 mmHg 85%
    19:00 -8°C° 0.1 mm 4 mps 738 mmHg 85%
    20:00 -9°C° 0.1 mm 4 mps 738 mmHg 85%
    21:00 -10°C° 0 mm 4 mps 739 mmHg 87%
    22:00 -10°C° 0 mm 4 mps 739 mmHg 89%
    23:00 -10°C° 0 mm 3 mps 739 mmHg 91%

    Tomorrow, 21 January, Monday

    Time Temperature Precipitation Wind Pressure Humidity
    00:00 -12°C° 0 mm 3 mps 740 mmHg 92%
    01:00 -12°C° 0 mm 3 mps 740 mmHg 93%
    02:00 -12°C° 0 mm 2 mps 740 mmHg 94%
    03:00 -12°C° 0 mm 2 mps 740 mmHg 94%
    04:00 -12°C° 0 mm 2 mps 740 mmHg 94%
    05:00 -10°C° 0 mm 2 mps 741 mmHg 93%
    06:00 -12°C° 0 mm 2 mps 741 mmHg 93%
    07:00 -12°C° 0 mm 2 mps 741 mmHg 93%
    08:00 -13°C° 0 mm 2 mps 741 mmHg 93%
    09:00 -12°C° 0 mm 2 mps 741 mmHg 92%
    10:00 -13°C° 0 mm 3 mps 741 mmHg 91%
    11:00 -13°C° 0 mm 3 mps 741 mmHg 90%
    12:00 -13°C° 0.1 mm 3 mps 741 mmHg 88%
    13:00 -13°C° 0.1 mm 3 mps 741 mmHg 87%
    14:00 -13°C° 0.1 mm 3 mps 742 mmHg 85%
    15:00 -14°C° 0 mm 3 mps 742 mmHg 88%
    16:00 -15°C° 0 mm 3 mps 742 mmHg 90%
    17:00 -16°C° 0 mm 2 mps 742 mmHg 92%
    18:00 -17°C° 0 mm 2 mps 743 mmHg 93%
    19:00 -18°C° 0 mm 2 mps 743 mmHg 94%
    20:00 -19°C° 0 mm 2 mps 744 mmHg 95%
    21:00 -20°C° 0 mm 2 mps 744 mmHg 95%
    22:00 -21°C° 0 mm 2 mps 744 mmHg 96%
    23:00 -23°C° 0 mm 2 mps 745 mmHg 97%

    Day after tomorrow, 22 January, Tuesday

    Time Temperature Precipitation Wind Pressure Humidity
    00:00 -21°C° 0 mm 2 mps 745 mmHg 96%
    01:00 -21°C° 0 mm 2 mps 745 mmHg 96%
    02:00 -21°C° 0 mm 2 mps 746 mmHg 96%
    03:00 -21°C° 0 mm 2 mps 746 mmHg 96%
    04:00 -23°C° 0 mm 2 mps 746 mmHg 96%
    05:00 -23°C° 0 mm 2 mps 746 mmHg 97%
    06:00 -23°C° 0 mm 2 mps 746 mmHg 97%
    07:00 -23°C° 0 mm 2 mps 747 mmHg 97%
    08:00 -24°C° 0 mm 2 mps 747 mmHg 97%
    09:00 -21°C° 0 mm 2 mps 747 mmHg 96%
    10:00 -20°C° 0 mm 2 mps 748 mmHg 95%
    11:00 -19°C° 0 mm 2 mps 748 mmHg 94%
    12:00 -18°C° 0 mm 2 mps 748 mmHg 94%
    13:00 -18°C° 0 mm 2 mps 748 mmHg 94%
    14:00 -17°C° 0 mm 2 mps 748 mmHg 94%
    15:00 -18°C° 0 mm 2 mps 748 mmHg 94%
    16:00 -19°C° 0 mm 2 mps 748 mmHg 95%
    17:00 -21°C° 0 mm 2 mps 748 mmHg 96%
    18:00 -21°C° 0 mm 2 mps 748 mmHg 96%
    19:00 -21°C° 0 mm 2 mps 748 mmHg 96%
    20:00 -23°C° 0 mm 2 mps 748 mmHg 96%
    21:00 -23°C° 0 mm 2 mps 748 mmHg 97%
    22:00 -23°C° 0 mm 2 mps 748 mmHg 97%
    23:00 -23°C° 0 mm 2 mps 748 mmHg 98%

    23 January, Wednesday

    Time Temperature Precipitation Wind Pressure Humidity
    00:00 -21°C° 0 mm 2 mps 748 mmHg 98%
    01:00 -21°C° 0 mm 2 mps 748 mmHg 98%
    02:00 -20°C° 0 mm 2 mps 748 mmHg 98%
    03:00 -19°C° 0 mm 2 mps 748 mmHg 97%
    04:00 -18°C° 0 mm 2 mps 748 mmHg 97%
    05:00 -17°C° 0 mm 2 mps 748 mmHg 96%
    06:00 -16°C° 0 mm 2 mps 748 mmHg 96%
    07:00 -15°C° 0 mm 2 mps 748 mmHg 95%
    08:00 -15°C° 0 mm 3 mps 748 mmHg 95%
    09:00 -14°C° 0.1 mm 3 mps 748 mmHg 94%
    10:00 -12°C° 0.1 mm 3 mps 748 mmHg 93%
    11:00 -11°C° 0.1 mm 4 mps 748 mmHg 92%
    12:00 -11°C° 0.1 mm 4 mps 748 mmHg 91%
    13:00 -10°C° 0.1 mm 4 mps 748 mmHg 91%
    14:00 -10°C° 0.1 mm 4 mps 748 mmHg 90%
    15:00 -11°C° 0 mm 4 mps 748 mmHg 90%
    16:00 -12°C° 0 mm 4 mps 748 mmHg 91%
    17:00 -15°C° 0 mm 4 mps 748 mmHg 91%
    18:00 -15°C° 0 mm 4 mps 748 mmHg 92%
    19:00 -16°C° 0 mm 4 mps 748 mmHg 92%
    20:00 -16°C° 0 mm 3 mps 748 mmHg 93%
    21:00 -16°C° 0 mm 3 mps 748 mmHg 93%
    22:00 -16°C° 0 mm 3 mps 748 mmHg 93%
    23:00 -17°C° 0 mm 3 mps 748 mmHg 94%

    24 January, Thursday

    Time Temperature Precipitation Wind Pressure Humidity
    00:00 -17°C° 0 mm 3 mps 749 mmHg 93%
    01:00 -17°C° 0 mm 3 mps 749 mmHg 92%
    02:00 -18°C° 0 mm 3 mps 749 mmHg 91%
    03:00 -18°C° 0 mm 3 mps 749 mmHg 91%
    04:00 -19°C° 0 mm 3 mps 748 mmHg 90%
    05:00 -18°C° 0 mm 2 mps 748 mmHg 90%
    06:00 -18°C° 0 mm 2 mps 748 mmHg 90%
    07:00 -19°C° 0 mm 2 mps 748 mmHg 90%
    08:00 -19°C° 0 mm 2 mps 748 mmHg 90%
    09:00 -17°C° 0 mm 2 mps 748 mmHg 89%
    10:00 -16°C° 0 mm 2 mps 748 mmHg 89%
    11:00 -14°C° 0 mm 2 mps 749 mmHg 88%
    12:00 -13°C° 0.1 mm 2 mps 748 mmHg 89%
    13:00 -11°C° 0.1 mm 1 mps 748 mmHg 91%
    14:00 -10°C° 0.1 mm 1 mps 748 mmHg 92%
    15:00 -10°C° 0.1 mm 1 mps 748 mmHg 93%
    16:00 -10°C° 0.1 mm 1 mps 748 mmHg 95%
    17:00 -10°C° 0.1 mm 1 mps 748 mmHg 96%
    18:00 -10°C° 0.1 mm 1 mps 748 mmHg 96%
    19:00 -10°C° 0.1 mm 1 mps 748 mmHg 96%
    20:00 -10°C° 0.1 mm 1 mps 748 mmHg 96%
    21:00 -10°C° 0.1 mm 1 mps 748 mmHg 96%
    22:00 -10°C° 0.1 mm 1 mps 749 mmHg 96%
    23:00 -13°C° 0.1 mm 2 mps 749 mmHg 96%

    25 January, Friday

    Time Temperature Precipitation Wind Pressure Humidity
    00:00 -13°C° 0.2 mm 2 mps 749 mmHg 96%
    01:00 -13°C° 0.2 mm 2 mps 749 mmHg 96%
    02:00 -13°C° 0.2 mm 2 mps 749 mmHg 96%
    03:00 -13°C° 0.2 mm 2 mps 749 mmHg 96%
    04:00 -14°C° 0.2 mm 3 mps 749 mmHg 95%
    05:00 -14°C° 0.2 mm 3 mps 749 mmHg 95%
    06:00 -14°C° 0.2 mm 3 mps 749 mmHg 95%
    07:00 -14°C° 0.2 mm 3 mps 749 mmHg 95%
    08:00 -14°C° 0.2 mm 3 mps 749 mmHg 95%
    09:00 -14°C° 0.2 mm 3 mps 749 mmHg 94%
    10:00 -14°C° 0.2 mm 3 mps 749 mmHg 94%
    11:00 -14°C° 0.2 mm 3 mps 749 mmHg 94%
    12:00 -14°C° 0.1 mm 3 mps 749 mmHg 94%
    13:00 -14°C° 0.1 mm 3 mps 749 mmHg 94%
    14:00 -13°C° 0.1 mm 3 mps 749 mmHg 94%
    15:00 -14°C° 0.1 mm 3 mps 749 mmHg 94%
    16:00 -14°C° 0.1 mm 3 mps 749 mmHg 94%
    17:00 -14°C° 0.1 mm 3 mps 749 mmHg 94%
    18:00 -14°C° 0.2 mm 3 mps 749 mmHg 94%
    19:00 -14°C° 0.2 mm 3 mps 749 mmHg 94%
    20:00 -15°C° 0.2 mm 3 mps 748 mmHg 95%
    21:00 -15°C° 0.4 mm 3 mps 748 mmHg 95%
    22:00 -15°C° 0.4 mm 3 mps 748 mmHg 95%
    23:00 -15°C° 0.4 mm 3 mps 748 mmHg 95%
    Show more